Total_Precipitation_Accumulation
0.08 0.11 0.07 0.08 0.17 0.12 0.25 0.24 0.18 0.16 0.16 0.38 0.14 0.15 0.29 0.11 0.12 0.14 0.11 0.10 0.04 0.07 0.03 0.07 0.05 0.03 0.02 0.01 0.02 0.01 0.01 0.01 0.01 0.02 0.02 0.04 0.13 0.16 0.03 0.08 0.14 0.13 0.08 0.32 0.53 0.48 0.35 0.34 0.14 0.17 0.15 0.13 0.19 0.14 0.17 0.09 0.11 0.05 0.03 0.04 0.04 0.03 0.02 0.02 0.02 0.05 0.04 0.05 0.03 0.03 0.04 0.02 0.02 0.01 0.00 0.01 0.01 0.01 0.02 0.06 0.04 0.04 0.02 0.05 0.04
0.04 0.06 0.08 0.11 0.18 0.12 0.13 0.09 0.17 0.16 0.29 0.23 0.20 0.22 0.27 0.15 0.12 0.10 0.04 0.09 0.09 0.05 0.05 0.08 0.03 0.01 0.02 0.01 0.01 0.01 0.00 0.00 0.01 0.01 0.01 0.05 0.08 0.09 0.01 0.03 0.09 0.14 0.15 0.21 0.35 0.48 0.43 0.27 0.34 0.18 0.13 0.28 0.34 0.19 0.20 0.14 0.10 0.08 0.08 0.06 0.04 0.05 0.06 0.02 0.01 0.02 0.03 0.05 0.03 0.01 0.02 0.04 0.02 0.03 0.01 0.01 0.01 0.02 0.04 0.02 0.05 0.06 0.04 0.09 0.04
0.11 0.14 0.14 0.04 0.08 0.11 0.13 0.26 0.23 0.26 0.10 0.12 0.20 0.13 0.11 0.08 0.05 0.13 0.11 0.04 0.06 0.07 0.04 0.05 0.03 0.00 0.01 0.00 0.01 0.01 0.01 0.01 0.02 0.02 0.03 0.03 0.04 0.13 0.10 0.04 0.14 0.09 0.20 0.21 0.18 0.15 0.25 0.40 0.42 0.19 0.21 0.21 0.29 0.52 0.20 0.21 0.21 0.14 0.08 0.06 0.07 0.04 0.03 0.02 0.03 0.02 0.01 0.03 0.03 0.03 0.03 0.04 0.03 0.04 0.04 0.03 0.02 0.01 0.04 0.04 0.06 0.05 0.04 0.05 0.05
0.08 0.10 0.08 0.13 0.12 0.14 0.24 0.48 0.54 0.21 0.17 0.26 0.23 0.22 0.13 0.08 0.06 0.10 0.12 0.23 0.05 0.05 0.01 0.08 0.04 0.02 0.01 0.01 0.01 0.02 0.01 0.01 0.01 0.01 0.00 0.00 0.01 0.10 0.17 0.19 0.08 0.12 0.16 0.10 0.13 0.35 0.21 0.19 0.19 0.17 0.29 0.29 0.45 0.49 0.37 0.17 0.22 0.13 0.11 0.18 0.15 0.07 0.07 0.10 0.05 0.02 0.04 0.03 0.03 0.05 0.06 0.05 0.05 0.06 0.04 0.04 0.05 0.03 0.08 0.07 0.07 0.07 0.06 0.04 0.05
0.04 0.09 0.11 0.20 0.19 0.20 0.39 0.34 0.31 0.19 0.27 0.25 0.18 0.23 0.10 0.17 0.14 0.14 0.30 0.29 0.11 0.10 0.02 0.02 0.03 0.02 0.02 0.03 0.01 0.00 0.00 0.00 0.01 0.02 0.01 0.01 0.01 0.06 0.08 0.12 0.14 0.05 0.05 0.05 0.12 0.19 0.15 0.21 0.24 0.10 0.14 0.28 0.74 0.68 0.31 0.19 0.25 0.25 0.19 0.28 0.44 0.21 0.22 0.23 0.15 0.14 0.08 0.03 0.02 0.02 0.03 0.05 0.04 0.09 0.05 0.04 0.07 0.08 0.04 0.03 0.20 0.09 0.12 0.06 0.07
0.08 0.13 0.25 0.23 0.19 0.15 0.47 0.27 0.20 0.23 0.22 0.33 0.22 0.31 0.24 0.17 0.15 0.29 0.12 0.21 0.14 0.08 0.02 0.03 0.02 0.01 0.02 0.00 0.01 0.01 0.01 0.00 0.00 0.00 0.00 0.01 0.01 0.03 0.08 0.11 0.10 0.12 0.17 0.07 0.05 0.11 0.09 0.21 0.28 0.22 0.24 0.22 0.23 0.24 0.29 0.20 0.34 0.32 0.41 0.74 0.52 0.28 0.16 0.18 0.16 0.16 0.24 0.28 0.16 0.07 0.06 0.04 0.03 0.04 0.08 0.13 0.06 0.08 0.10 0.10 0.07 0.17 0.10 0.07 0.03
0.15 0.14 0.10 0.13 0.20 0.23 0.21 0.30 0.23 0.18 0.42 0.20 0.44 0.40 0.25 0.25 0.34 0.45 0.30 0.08 0.09 0.07 0.03 0.04 0.02 0.02 0.00 0.01 0.00 0.00 0.01 0.00 0.00 0.00 0.00 0.00 0.00 0.03 0.03 0.09 0.07 0.12 0.11 0.19 0.07 0.07 0.08 0.19 0.33 0.42 0.24 0.19 0.23 0.16 0.28 0.16 0.44 0.31 0.44 0.60 0.51 0.32 0.19 0.16 0.24 0.24 0.23 0.23 0.43 0.35 0.32 0.09 0.09 0.13 0.06 0.05 0.04 0.06 0.05 0.10 0.09 0.10 0.17 0.14 0.11
0.20 0.17 0.14 0.17 0.17 0.16 0.42 0.32 0.13 0.42 0.32 0.24 0.33 0.22 0.20 0.19 0.17 0.52 0.14 0.10 0.03 0.05 0.03 0.02 0.03 0.01 0.01 0.01 0.00 0.00 0.00 0.01 0.00 0.00 0.00 0.01 0.03 0.03 0.04 0.03 0.06 0.07 0.09 0.11 0.18 0.06 0.05 0.10 0.24 0.35 0.24 0.24 0.32 0.47 0.40 0.40 0.47 0.36 0.39 0.32 0.33 0.48 0.38 0.21 0.25 0.29 0.41 0.40 0.43 0.39 0.41 0.34 0.32 0.22 0.16 0.10 0.12 0.07 0.11 0.06 0.07 0.07 0.07 0.06 0.05
0.19 0.10 0.14 0.21 0.17 0.31 0.31 0.36 0.43 0.45 0.29 0.32 0.37 0.28 0.40 0.19 0.10 0.12 0.11 0.09 0.05 0.04 0.03 0.02 0.01 0.01 0.01 0.00 0.00 0.00 0.00 0.01 0.00 0.00 0.00 0.01 0.03 0.06 0.02 0.02 0.02 0.05 0.06 0.12 0.13 0.21 0.04 0.01 0.12 0.17 0.19 0.20 0.17 0.37 0.30 0.51 0.48 0.66 0.49 0.38 0.30 0.39 0.23 0.27 0.45 0.40 0.66 0.62 0.90 0.55 0.45 0.29 0.38 0.31 0.33 0.40 0.31 0.28 0.20 0.21 0.12 0.09 0.06 0.03 0.05
0.09 0.09 0.10 0.08 0.19 0.30 0.22 0.15 0.18 0.25 0.29 0.31 0.25 0.28 0.22 0.24 0.22 0.10 0.10 0.07 0.05 0.06 0.04 0.02 0.01 0.01 0.01 0.02 0.00 0.00 0.00 0.00 0.00 0.00 0.00 0.00 0.01 0.01 0.02 0.03 0.04 0.04 0.06 0.06 0.14 0.13 0.16 0.05 0.02 0.07 0.05 0.06 0.07 0.14 0.41 0.39 0.46 0.42 0.34 0.40 0.49 0.40 0.60 0.50 0.62 0.47 0.47 0.61 0.69 0.59 0.45 0.45 0.43 0.40 0.31 0.37 0.35 0.50 0.57 0.36 0.23 0.27 0.16 0.07 0.07
0.15 0.14 0.09 0.09 0.18 0.16 0.12 0.28 0.28 0.15 0.23 0.48 0.37 0.31 0.23 0.16 0.19 0.09 0.06 0.12 0.04 0.03 0.02 0.01 0.00 0.01 0.00 0.00 0.00 0.00 0.00 0.00 0.00 0.00 0.01 0.01 0.00 0.01 0.03 0.00 0.01 0.03 0.06 0.06 0.13 0.09 0.16 0.23 0.22 0.25 0.17 0.07 0.17 0.25 0.24 0.16 0.14 0.27 0.36 0.39 0.31 0.54 0.85 0.66 0.54 0.46 0.52 0.54 0.45 0.45 0.43 0.56 0.45 0.67 0.49 0.51 0.59 0.49 0.42 0.27 0.27 0.30 0.19 0.15 0.13
0.09 0.12 0.05 0.16 0.18 0.19 0.21 0.15 0.23 0.23 0.32 0.38 0.19 0.18 0.27 0.13 0.06 0.11 0.10 0.06 0.02 0.01 0.01 0.01 0.01 0.00 0.00 0.00 0.00 0.00 0.00 0.00 0.00 0.00 0.00 0.00 0.01 0.01 0.02 0.00 0.00 0.01 0.02 0.03 0.03 0.09 0.12 0.16 0.26 0.28 0.25 0.12 0.15 0.17 0.16 0.23 0.30 0.17 0.14 0.27 0.57 0.65 0.69 0.62 0.46 0.60 0.41 0.52 0.60 0.49 0.37 0.39 0.38 0.41 0.32 0.52 0.38 0.46 0.43 0.39 0.17 0.24 0.19 0.19 0.11
0.13 0.17 0.13 0.13 0.15 0.37 0.31 0.22 0.20 0.29 0.21 0.24 0.15 0.31 0.15 0.11 0.06 0.07 0.13 0.04 0.02 0.01 0.01 0.02 0.01 0.01 0.00 0.00 0.00 0.00 0.00 0.00 0.00 0.00 0.00 0.01 0.00 0.00 0.00 0.00 0.00 0.00 0.00 0.00 0.00 0.02 0.04 0.05 0.07 0.09 0.18 0.27 0.18 0.09 0.18 0.14 0.10 0.07 0.15 0.30 0.33 0.41 0.29 0.48 0.66 0.61 0.41 0.30 0.43 0.35 0.31 0.52 0.33 0.27 0.31 0.26 0.30 0.57 0.48 0.33 0.21 0.21 0.26 0.15 0.21
0.09 0.10 0.08 0.06 0.09 0.08 0.16 0.19 0.18 0.41 0.19 0.12 0.11 0.06 0.07 0.14 0.05 0.09 0.13 0.06 0.02 0.03 0.01 0.01 0.03 0.02 0.01 0.00 0.00 0.00 0.00 0.00 0.01 0.01 0.01 0.00 0.01 0.02 0.00 0.00 0.00 0.00 0.00 0.00 0.00 0.00 0.01 0.02 0.02 0.05 0.08 0.11 0.14 0.18 0.28 0.27 0.13 0.03 0.06 0.09 0.16 0.17 0.22 0.27 0.36 0.64 0.48 0.35 0.32 0.29 0.15 0.22 0.20 0.26 0.30 0.35 0.23 0.30 0.34 0.36 0.32 0.24 0.31 0.21 0.21
0.08 0.09 0.06 0.07 0.13 0.17 0.24 0.24 0.17 0.11 0.10 0.11 0.10 0.15 0.14 0.09 0.06 0.18 0.09 0.03 0.01 0.01 0.02 0.02 0.04 0.01 0.00 0.00 0.00 0.00 0.07 0.00 0.00 0.00 0.00 0.00 0.01 0.01 0.00 0.00 0.00 0.00 0.00 0.00 0.00 0.00 0.00 0.00 0.00 0.01 0.01 0.02 0.08 0.09 0.11 0.12 0.07 0.01 0.00 0.01 0.01 0.03 0.11 0.12 0.16 0.12 0.22 0.39 0.38 0.21 0.20 0.19 0.18 0.16 0.23 0.23 0.23 0.28 0.31 0.22 0.29 0.28 0.22 0.15 0.10
0.09 0.08 0.06 0.07 0.21 0.21 0.20 0.17 0.10 0.06 0.05 0.24 0.11 0.13 0.12 0.16 0.08 0.10 0.19 0.07 0.02 0.02 0.01 0.01 0.01 0.00 0.01 0.03 0.00 0.00 0.00 0.01 0.00 0.00 0.00 0.00 0.01 0.00 0.00 0.00 0.00 0.00 0.00 0.00 0.00 0.00 0.00 0.00 0.00 0.00 0.00 0.00 0.01 0.01 0.04 0.02 0.02 0.01 0.02 0.02 0.01 0.01 0.02 0.02 0.03 0.08 0.18 0.31 0.12 0.05 0.07 0.08 0.04 0.06 0.15 0.12 0.17 0.15 0.22 0.21 0.26 0.17 0.12 0.17 0.11
0.07 0.09 0.17 0.20 0.11 0.09 0.04 0.06 0.06 0.06 0.05 0.23 0.17 0.15 0.17 0.10 0.11 0.09 0.14 0.20 0.03 0.02 0.02 0.01 0.01 0.01 0.01 0.00 0.00 0.00 0.01 0.01 0.00 0.01 0.01 0.01 0.00 0.01 0.00 0.00 0.00 0.00 0.00 0.00 0.00 0.00 0.02 0.01 0.00 0.00 0.00 0.00 0.00 0.00 0.00 0.00 0.00 0.01 0.01 0.00 0.01 0.01 0.02 0.02 0.02 0.02 0.06 0.13 0.13 0.12 0.09 0.02 0.00 0.01 0.04 0.12 0.17 0.20 0.19 0.19 0.14 0.13 0.10 0.16 0.15
0.04 0.08 0.19 0.17 0.07 0.03 0.04 0.05 0.04 0.07 0.06 0.10 0.08 0.11 0.10 0.15 0.10 0.12 0.08 0.11 0.05 0.01 0.02 0.03 0.01 0.01 0.01 0.01 0.01 0.10 0.01 0.04 0.00 0.15 0.00 0.01 0.00 0.00 0.00 0.00 0.00 0.00 0.00 0.00 0.00 0.00 0.00 0.01 0.00 0.00 0.00 0.00 0.00 0.00 0.00 0.00 0.00 0.00 0.00 0.00 0.00 0.00 0.00 0.00 0.00 0.01 0.03 0.03 0.05 0.13 0.08 0.03 0.03 0.05 0.05 0.06 0.12 0.18 0.17 0.18 0.24 0.13 0.09 0.13 0.15
0.04 0.03 0.05 0.04 0.05 0.04 0.01 0.03 0.05 0.05 0.04 0.09 0.16 0.16 0.13 0.13 0.05 0.04 0.07 0.05 0.02 0.01 0.00 0.01 0.01 0.01 0.01 0.01 0.01 0.03 0.04 0.01 0.05 0.00 0.03 0.00 0.01 0.01 0.01 0.00 0.00 0.00 0.00 0.00 0.00 0.00 0.00 0.00 0.00 0.00 0.00 0.00 0.00 0.00 0.00 0.00 0.00 0.00 0.00 0.00 0.00 0.00 0.00 0.00 0.00 0.00 0.00 0.00 0.02 0.06 0.12 0.02 0.02 0.02 0.01 0.02 0.05 0.21 0.28 0.23 0.04 0.06 0.11 0.09 0.09
0.01 0.01 0.03 0.02 0.02 0.05 0.04 0.02 0.01 0.03 0.05 0.07 0.11 0.11 0.17 0.07 0.06 0.08 0.09 0.03 0.04 0.01 0.01 0.01 0.01 0.03 0.02 0.04 0.03 0.02 0.01 0.01 0.00 0.00 0.02 0.02 0.01 0.00 0.00 0.00 0.01 0.00 0.00 0.00 0.00 0.00 0.00 0.00 0.00 0.00 0.01 0.00 0.00 0.01 0.02 0.00 0.00 0.00 0.00 0.00 0.00 0.00 0.00 0.00 0.00 0.00 0.00 0.00 0.00 0.00 0.00 0.01 0.05 0.05 0.05 0.02 0.03 0.13 0.28 0.13 0.14 0.13 0.09 0.04 0.06
0.02 0.02 0.02 0.03 0.02 0.02 0.05 0.02 0.01 0.03 0.03 0.04 0.04 0.03 0.04 0.07 0.07 0.04 0.04 0.03 0.05 0.01 0.01 0.02 0.01 0.04 0.05 0.07 0.02 0.01 0.01 0.00 0.00 0.00 0.00 0.00 0.00 0.00 0.01 0.00 0.00 0.01 0.00 0.00 0.00 0.00 0.00 0.00 0.00 0.01 0.01 0.01 0.00 0.00 0.00 0.01 0.00 0.00 0.00 0.00 0.00 0.00 0.00 0.00 0.00 0.00 0.00 0.00 0.00 0.00 0.00 0.00 0.00 0.01 0.01 0.01 0.01 0.03 0.12 0.22 0.23 0.19 0.07 0.09 0.07
0.01 0.01 0.02 0.01 0.01 0.01 0.03 0.04 0.02 0.03 0.02 0.02 0.02 0.02 0.02 0.05 0.03 0.04 0.02 0.03 0.02 0.01 0.01 0.01 0.01 0.03 0.02 0.05 0.03 0.00 0.00 0.00 0.00 0.00 0.01 0.01 0.02 0.01 0.01 0.01 0.00 0.01 0.00 0.00 0.01 0.00 0.00 0.00 0.00 0.01 0.01 0.01 0.00 0.00 0.01 0.00 0.01 0.00 0.01 0.00 0.00 0.00 0.00 0.00 0.00 0.00 0.00 0.00 0.00 0.00 0.00 0.00 0.00 0.00 0.00 0.01 0.02 0.01 0.01 0.04 0.09 0.21 0.11 0.06 0.03
0.00 0.00 0.00 0.00 0.01 0.00 0.01 0.03 0.02 0.02 0.01 0.01 0.03 0.03 0.03 0.01 0.01 0.02 0.02 0.02 0.02 0.01 0.01 0.00 0.01 0.02 0.01 0.01 0.00 0.00 0.00 0.00 0.00 0.01 0.00 0.00 0.00 0.00 0.00 0.01 0.00 0.02 0.00 0.00 0.00 0.01 0.01 0.01 0.00 0.02 0.02 0.01 0.00 0.00 0.00 0.00 0.00 0.00 0.00 0.00 0.00 0.00 0.00 0.00 0.00 0.00 0.00 0.00 0.00 0.00 0.00 0.00 0.00 0.00 0.00 0.00 0.01 0.01 0.02 0.03 0.02 0.02 0.08 0.11 0.06
0.00 0.00 0.00 0.00 0.00 0.00 0.00 0.01 0.01 0.01 0.02 0.02 0.01 0.01 0.02 0.01 0.01 0.01 0.02 0.01 0.02 0.03 0.01 0.01 0.01 0.02 0.01 0.00 0.00 0.00 0.00 0.00 0.00 0.00 0.00 0.01 0.00 0.01 0.01 0.00 0.00 0.00 0.01 0.00 0.00 0.00 0.01 0.02 0.02 0.02 0.01 0.01 0.01 0.00 0.00 0.00 0.00 0.00 0.00 0.00 0.00 0.00 0.00 0.00 0.00 0.00 0.00 0.00 0.00 0.00 0.00 0.00 0.00 0.00 0.00 0.00 0.00 0.00 0.01 0.01 0.01 0.02 0.03 0.03 0.09
0.00 0.00 0.00 0.00 0.00 0.00 0.00 0.00 0.01 0.01 0.01 0.01 0.01 0.01 0.01 0.02 0.01 0.00 0.00 0.01 0.01 0.01 0.01 0.01 0.01 0.01 0.01 0.00 0.00 0.00 0.00 0.00 0.00 0.00 0.00 0.01 0.00 0.00 0.00 0.00 0.00 0.00 0.00 0.00 0.00 0.00 0.01 0.00 0.02 0.01 0.01 0.01 0.00 0.00 0.00 0.00 0.00 0.01 0.00 0.00 0.00 0.00 0.00 0.00 0.00 0.00 0.00 0.00 0.00 0.00 0.00 0.00 0.00 0.00 0.00 0.00 0.00 0.00 0.00 0.00 0.00 0.00 0.01 0.02 0.03
0.00 0.00 0.00 0.00 0.00 0.00 0.00 0.00 0.00 0.00 0.01 0.01 0.02 0.01 0.01 0.01 0.01 0.01 0.00 0.00 0.01 0.01 0.02 0.00 0.00 0.00 0.00 0.01 0.00 0.00 0.00 0.00 0.01 0.01 0.01 0.01 0.01 0.00 0.01 0.00 0.00 0.00 0.00 0.00 0.00 0.01 0.02 0.01 0.01 0.00 0.00 0.00 0.01 0.00 0.00 0.00 0.01 0.00 0.00 0.00 0.00 0.00 0.00 0.00 0.00 0.00 0.00 0.00 0.00 0.00 0.00 0.00 0.00 0.00 0.00 0.00 0.00 0.00 0.00 0.00 0.00 0.00 0.00 0.00 0.00
0.00 0.00 0.00 0.00 0.00 0.00 0.00 0.00 0.00 0.00 0.00 0.01 0.02 0.02 0.02 0.01 0.01 0.01 0.00 0.01 0.01 0.01 0.02 0.02 0.01 0.00 0.00 0.00 0.00 0.00 0.00 0.01 0.00 0.01 0.01 0.01 0.01 0.01 0.02 0.02 0.00 0.00 0.00 0.00 0.00 0.00 0.01 0.02 0.02 0.00 0.00 0.00 0.00 0.00 0.01 0.00 0.00 0.00 0.00 0.00 0.00 0.00 0.00 0.00 0.00 0.00 0.00 0.00 0.00 0.00 0.00 0.00 0.00 0.00 0.00 0.00 0.00 0.00 0.00 0.00 0.00 0.00 0.00 0.00 0.00
0.00 0.00 0.00 0.00 0.00 0.00 0.00 0.00 0.00 0.00 0.01 0.00 0.01 0.01 0.01 0.01 0.02 0.01 0.01 0.00 0.01 0.01 0.01 0.02 0.01 0.00 0.01 0.00 0.01 0.01 0.01 0.01 0.01 0.01 0.02 0.02 0.02 0.01 0.04 0.04 0.07 0.03 0.01 0.00 0.00 0.00 0.00 0.00 0.00 0.00 0.01 0.01 0.01 0.01 0.01 0.00 0.01 0.01 0.00 0.00 0.00 0.02 0.00 0.00 0.00 0.00 0.00 0.00 0.00 0.00 0.00 0.00 0.00 0.00 0.00 0.00 0.00 0.00 0.00 0.00 0.00 0.00 0.00 0.00 0.00
0.00 0.00 0.00 0.00 0.00 0.00 0.00 0.01 0.00 0.00 0.00 0.00 0.00 0.00 0.01 0.01 0.01 0.01 0.00 0.01 0.00 0.01 0.01 0.02 0.02 0.01 0.01 0.01 0.01 0.02 0.00 0.00 0.01 0.01 0.01 0.01 0.02 0.02 0.03 0.04 0.07 0.04 0.02 0.00 0.00 0.00 0.00 0.00 0.00 0.01 0.01 0.02 0.01 0.04 0.03 0.01 0.01 0.00 0.01 0.00 0.01 0.02 0.00 0.00 0.00 0.00 0.00 0.00 0.00 0.00 0.00 0.00 0.00 0.00 0.00 0.00 0.00 0.00 0.00 0.00 0.00 0.00 0.00 0.00 0.00
0.00 0.00 0.00 0.00 0.00 0.00 0.00 0.00 0.00 0.00 0.00 0.01 0.00 0.00 0.00 0.00 0.00 0.00 0.00 0.00 0.00 0.01 0.01 0.01 0.01 0.01 0.00 0.00 0.01 0.01 0.00 0.00 0.01 0.01 0.01 0.01 0.02 0.02 0.02 0.02 0.03 0.09 0.04 0.01 0.01 0.00 0.00 0.00 0.00 0.02 0.03 0.04 0.03 0.03 0.02 0.01 0.01 0.00 0.00 0.00 0.01 0.00 0.00 0.00 0.00 0.00 0.00 0.00 0.00 0.00 0.00 0.00 0.00 0.00 0.00 0.00 0.00 0.00 0.00 0.00 0.00 0.00 0.00 0.00 0.00
0.00 0.00 0.00 0.00 0.00 0.00 0.00 0.00 0.00 0.00 0.00 0.01 0.00 0.01 0.01 0.00 0.00 0.01 0.00 0.00 0.00 0.00 0.00 0.00 0.00 0.00 0.00 0.00 0.00 0.00 0.00 0.01 0.01 0.01 0.01 0.01 0.01 0.02 0.03 0.02 0.03 0.03 0.06 0.08 0.01 0.02 0.00 0.01 0.00 0.02 0.04 0.02 0.01 0.03 0.03 0.02 0.00 0.00 0.00 0.00 0.00 0.00 0.00 0.00 0.00 0.00 0.00 0.00 0.00 0.00 0.00 0.00 0.00 0.00 0.00 0.00 0.00 0.00 0.00 0.00 0.00 0.00 0.00 0.00 0.00
0.00 0.00 0.00 0.00 0.00 0.00 0.00 0.00 0.00 0.00 0.00 0.00 0.00 0.00 0.00 0.00 0.00 0.00 0.00 0.00 0.00 0.00 0.00 0.01 0.00 0.00 0.00 0.00 0.00 0.00 0.01 0.02 0.01 0.02 0.02 0.01 0.01 0.03 0.01 0.01 0.02 0.01 0.03 0.05 0.05 0.00 0.01 0.01 0.01 0.01 0.00 0.02 0.02 0.00 0.00 0.01 0.01 0.00 0.00 0.00 0.00 0.00 0.00 0.00 0.00 0.00 0.00 0.00 0.00 0.00 0.00 0.00 0.00 0.00 0.00 0.00 0.00 0.00 0.00 0.00 0.00 0.00 0.00 0.00 0.00
0.00 0.00 0.00 0.00 0.00 0.00 0.00 0.00 0.00 0.00 0.00 0.00 0.00 0.00 0.00 0.00 0.00 0.00 0.00 0.00 0.00 0.00 0.00 0.00 0.00 0.00 0.00 0.00 0.00 0.00 0.01 0.01 0.02 0.01 0.02 0.01 0.01 0.02 0.01 0.01 0.03 0.03 0.02 0.02 0.07 0.02 0.00 0.00 0.01 0.01 0.01 0.01 0.01 0.00 0.01 0.02 0.01 0.02 0.00 0.00 0.00 0.00 0.00 0.00 0.02 0.01 0.00 0.00 0.00 0.00 0.00 0.00 0.00 0.00 0.00 0.00 0.00 0.00 0.00 0.00 0.00 0.00 0.00 0.00 0.00
0.00 0.00 0.00 0.00 0.00 0.00 0.00 0.00 0.00 0.00 0.00 0.00 0.00 0.00 0.00 0.00 0.00 0.00 0.00 0.00 0.00 0.00 0.00 0.00 0.00 0.00 0.00 0.00 0.00 0.00 0.01 0.02 0.01 0.02 0.04 0.01 0.02 0.02 0.01 0.01 0.02 0.02 0.02 0.04 0.02 0.04 0.01 0.01 0.00 0.02 0.02 0.02 0.02 0.01 0.02 0.02 0.03 0.02 0.01 0.01 0.02 0.01 0.01 0.00 0.02 0.10 0.01 0.00 0.00 0.00 0.00 0.00 0.00 0.00 0.00 0.00 0.00 0.00 0.00 0.00 0.00 0.00 0.00 0.00 0.00
0.00 0.00 0.00 0.00 0.00 0.00 0.00 0.00 0.00 0.00 0.01 0.01 0.00 0.00 0.00 0.00 0.00 0.00 0.00 0.00 0.00 0.00 0.00 0.00 0.00 0.00 0.00 0.00 0.00 0.00 0.00 0.02 0.00 0.01 0.00 0.00 0.01 0.01 0.01 0.02 0.02 0.02 0.04 0.03 0.05 0.06 0.05 0.02 0.01 0.01 0.01 0.02 0.01 0.03 0.01 0.01 0.01 0.01 0.03 0.02 0.01 0.02 0.00 0.00 0.01 0.01 0.01 0.00 0.00 0.00 0.00 0.00 0.00 0.00 0.00 0.00 0.00 0.00 0.00 0.00 0.00 0.00 0.00 0.00 0.00
0.00 0.00 0.00 0.00 0.00 0.00 0.01 0.02 0.03 0.03 0.02 0.02 0.02 0.00 0.00 0.00 0.00 0.00 0.00 0.00 0.00 0.00 0.00 0.00 0.00 0.00 0.00 0.00 0.00 0.00 0.00 0.00 0.00 0.00 0.01 0.02 0.03 0.01 0.01 0.02 0.02 0.01 0.02 0.03 0.03 0.02 0.06 0.09 0.03 0.02 0.00 0.01 0.01 0.01 0.01 0.01 0.01 0.02 0.02 0.02 0.00 0.00 0.00 0.01 0.01 0.02 0.02 0.00 0.00 0.00 0.00 0.00 0.00 0.00 0.00 0.00 0.00 0.00 0.00 0.00 0.00 0.00 0.00 0.00 0.00
0.03 0.06 0.04 0.04 0.08 0.11 0.12 0.09 0.07 0.06 0.04 0.02 0.00 0.00 0.00 0.00 0.00 0.00 0.00 0.00 0.00 0.00 0.00 0.00 0.00 0.00 0.00 0.00 0.00 0.00 0.00 0.00 0.01 0.01 0.01 0.02 0.01 0.01 0.01 0.01 0.01 0.04 0.07 0.02 0.02 0.08 0.07 0.13 0.06 0.03 0.02 0.01 0.01 0.01 0.01 0.02 0.02 0.01 0.01 0.01 0.01 0.01 0.00 0.01 0.02 0.01 0.01 0.00 0.00 0.00 0.00 0.00 0.00 0.00 0.00 0.00 0.00 0.00 0.00 0.00 0.00 0.00 0.00 0.00 0.00
0.06 0.07 0.10 0.16 0.19 0.18 0.14 0.11 0.08 0.06 0.02 0.00 0.00 0.00 0.00 0.00 0.00 0.00 0.00 0.00 0.00 0.00 0.00 0.00 0.00 0.00 0.00 0.00 0.00 0.00 0.00 0.00 0.00 0.00 0.00 0.01 0.01 0.01 0.01 0.01 0.06 0.21 0.11 0.10 0.17 0.29 0.10 0.07 0.18 0.11 0.04 0.04 0.03 0.01 0.01 0.02 0.04 0.04 0.01 0.01 0.01 0.01 0.02 0.02 0.02 0.01 0.03 0.02 0.02 0.02 0.01 0.00 0.00 0.00 0.00 0.00 0.00 0.00 0.00 0.00 0.00 0.00 0.00 0.00 0.00
0.22 0.20 0.24 0.23 0.20 0.17 0.13 0.10 0.05 0.01 0.00 0.00 0.00 0.00 0.00 0.00 0.00 0.00 0.00 0.00 0.00 0.00 0.00 0.00 0.00 0.00 0.00 0.01 0.00 0.00 0.00 0.00 0.00 0.01 0.02 0.02 0.01 0.02 0.03 0.02 0.03 0.13 0.08 0.04 0.03 0.04 0.15 0.12 0.06 0.10 0.06 0.03 0.02 0.06 0.05 0.01 0.04 0.02 0.04 0.05 0.08 0.02 0.02 0.04 0.03 0.01 0.01 0.02 0.02 0.01 0.00 0.00 0.00 0.00 0.00 0.00 0.00 0.00 0.00 0.00 0.00 0.00 0.00 0.00 0.00
0.29 0.31 0.28 0.26 0.22 0.15 0.07 0.02 0.00 0.01 0.00 0.00 0.00 0.00 0.00 0.00 0.00 0.00 0.00 0.00 0.00 0.00 0.01 0.01 0.00 0.00 0.00 0.00 0.01 0.00 0.00 0.01 0.01 0.00 0.02 0.01 0.01 0.01 0.01 0.01 0.01 0.02 0.07 0.04 0.02 0.04 0.03 0.03 0.03 0.09 0.05 0.05 0.03 0.02 0.02 0.02 0.06 0.05 0.05 0.07 0.06 0.05 0.05 0.08 0.17 0.05 0.02 0.01 0.00 0.00 0.00 0.00 0.00 0.01 0.00 0.00 0.00 0.00 0.00 0.00 0.00 0.00 0.00 0.00 0.00
0.41 0.33 0.22 0.14 0.07 0.04 0.02 0.01 0.00 0.00 0.00 0.00 0.00 0.00 0.00 0.00 0.00 0.00 0.00 0.00 0.00 0.00 0.01 0.03 0.01 0.01 0.00 0.01 0.01 0.02 0.02 0.01 0.02 0.02 0.01 0.01 0.01 0.00 0.03 0.01 0.05 0.05 0.02 0.08 0.03 0.02 0.07 0.04 0.03 0.07 0.06 0.05 0.04 0.04 0.04 0.07 0.05 0.07 0.05 0.04 0.04 0.03 0.03 0.04 0.05 0.03 0.02 0.03 0.03 0.00 0.00 0.00 0.01 0.00 0.00 0.00 0.00 0.00 0.00 0.00 0.00 0.00 0.00 0.00 0.00
0.25 0.16 0.11 0.07 0.05 0.03 0.01 0.01 0.01 0.00 0.00 0.00 0.00 0.00 0.00 0.00 0.00 0.00 0.00 0.00 0.00 0.00 0.00 0.00 0.01 0.00 0.00 0.02 0.20 0.09 0.08 0.06 0.06 0.04 0.02 0.03 0.08 0.10 0.04 0.03 0.02 0.02 0.02 0.02 0.02 0.02 0.03 0.04 0.07 0.06 0.09 0.16 0.04 0.03 0.04 0.03 0.02 0.03 0.04 0.07 0.09 0.07 0.03 0.10 0.03 0.03 0.03 0.02 0.02 0.01 0.01 0.01 0.01 0.01 0.00 0.00 0.00 0.00 0.00 0.00 0.00 0.00 0.00 0.00 0.00
0.13 0.13 0.11 0.10 0.07 0.04 0.02 0.01 0.01 0.00 0.00 0.00 0.00 0.00 0.00 0.00 0.00 0.00 0.00 0.00 0.00 0.00 0.01 0.00 0.01 0.00 0.00 0.00 0.01 0.02 0.02 0.05 0.09 0.04 0.05 0.05 0.03 0.03 0.03 0.02 0.01 0.01 0.01 0.01 0.02 0.02 0.03 0.03 0.06 0.04 0.04 0.07 0.04 0.02 0.02 0.03 0.03 0.08 0.08 0.06 0.09 0.08 0.10 0.13 0.10 0.04 0.03 0.03 0.03 0.02 0.01 0.01 0.00 0.00 0.00 0.00 0.00 0.00 0.00 0.00 0.00 0.00 0.00 0.00 0.00
0.10 0.10 0.12 0.12 0.09 0.06 0.04 0.02 0.01 0.00 0.00 0.00 0.00 0.00 0.00 0.00 0.00 0.00 0.00 0.00 0.00 0.00 0.00 0.00 0.00 0.01 0.01 0.04 0.10 0.17 0.16 0.14 0.13 0.08 0.06 0.03 0.02 0.01 0.01 0.01 0.02 0.01 0.00 0.00 0.01 0.02 0.02 0.04 0.04 0.07 0.04 0.05 0.04 0.04 0.05 0.07 0.07 0.07 0.05 0.10 0.06 0.08 0.13 0.16 0.13 0.10 0.08 0.03 0.04 0.02 0.01 0.01 0.01 0.00 0.00 0.00 0.00 0.00 0.00 0.00 0.00 0.00 0.00 0.00 0.00
0.05 0.09 0.13 0.14 0.12 0.09 0.05 0.03 0.02 0.01 0.01 0.00 0.00 0.00 0.00 0.00 0.00 0.00 0.00 0.00 0.00 0.00 0.00 0.00 0.00 0.01 0.06 0.08 0.14 0.28 0.11 0.05 0.07 0.04 0.02 0.01 0.01 0.01 0.01 0.01 0.00 0.00 0.00 0.00 0.00 0.03 0.08 0.05 0.04 0.03 0.03 0.04 0.13 0.15 0.06 0.07 0.04 0.13 0.28 0.52 0.47 0.19 0.11 0.12 0.10 0.05 0.03 0.01 0.02 0.02 0.01 0.01 0.01 0.00 0.00 0.00 0.00 0.00 0.00 0.00 0.00 0.00 0.00 0.00 0.00
0.18 0.13 0.14 0.15 0.13 0.11 0.08 0.06 0.05 0.03 0.02 0.01 0.01 0.00 0.00 0.01 0.01 0.01 0.01 0.01 0.00 0.01 0.01 0.02 0.01 0.00 0.02 0.05 0.45 0.49 0.08 0.12 0.04 0.02 0.03 0.02 0.06 0.06 0.04 0.05 0.04 0.02 0.01 0.00 0.00 0.00 0.01 0.02 0.08 0.07 0.03 0.47 0.28 0.11 0.09 0.05 0.09 0.17 0.39 0.58 0.72 0.56 0.20 0.09 0.05 0.02 0.00 0.00 0.02 0.04 0.04 0.03 0.01 0.00 0.00 0.00 0.00 0.00 0.00 0.00 0.00 0.00 0.00 0.00 0.00
0.12 0.06 0.06 0.06 0.06 0.06 0.05 0.05 0.05 0.05 0.04 0.02 0.01 0.01 0.00 0.00 0.00 0.00 0.00 0.01 0.02 0.02 0.02 0.02 0.02 0.02 0.14 0.47 0.42 0.15 0.03 0.07 0.04 0.01 0.01 0.00 0.00 0.02 0.04 0.03 0.04 0.01 0.03 0.04 0.03 0.14 0.06 0.07 0.06 0.04 0.03 0.02 0.05 0.06 0.04 0.03 0.03 0.12 0.61 0.76 0.81 0.40 0.25 0.20 0.07 0.01 0.00 0.01 0.02 0.06 0.06 0.02 0.02 0.01 0.01 0.01 0.00 0.00 0.00 0.00 0.00 0.00 0.00 0.00 0.00
0.05 0.03 0.04 0.04 0.08 0.21 0.15 0.15 0.12 0.08 0.05 0.03 0.01 0.01 0.01 0.02 0.01 0.02 0.02 0.01 0.02 0.01 0.02 0.01 0.02 0.07 0.12 0.37 0.07 0.09 0.10 0.09 0.05 0.03 0.12 0.24 0.28 0.26 0.05 0.05 0.02 0.01 0.02 0.01 0.00 0.00 0.01 0.01 0.01 0.01 0.02 0.01 0.01 0.01 0.03 0.02 0.04 0.44 1.04 0.83 0.37 0.31 0.58 0.54 0.34 0.05 0.00 0.00 0.00 0.01 0.03 0.02 0.02 0.02 0.01 0.01 0.01 0.00 0.00 0.00 0.00 0.00 0.00 0.00 0.00
0.01 0.01 0.02 0.04 0.03 0.09 0.08 0.03 0.03 0.03 0.05 0.05 0.05 0.04 0.04 0.02 0.02 0.02 0.01 0.01 0.04 0.03 0.05 0.08 0.04 0.12 0.24 0.20 0.10 0.16 0.05 0.04 0.07 0.14 0.21 0.12 0.04 0.03 0.02 0.03 0.03 0.04 0.03 0.03 0.03 0.01 0.00 0.00 0.00 0.00 0.00 0.00 0.00 0.00 0.01 0.00 0.26 0.96 1.68 1.09 0.10 0.67 0.81 1.05 0.52 0.18 0.01 0.00 0.00 0.01 0.03 0.06 0.04 0.02 0.02 0.01 0.01 0.01 0.00 0.00 0.00 0.00 0.00 0.00 0.00
0.01 0.00 0.01 0.02 0.04 0.03 0.02 0.02 0.02 0.05 0.06 0.03 0.01 0.01 0.01 0.01 0.02 0.03 0.02 0.03 0.07 0.06 0.08 0.30 0.30 0.25 0.05 0.05 0.03 0.06 0.18 0.14 0.03 0.12 0.03 0.22 0.26 0.03 0.02 0.02 0.01 0.02 0.01 0.01 0.01 0.02 0.01 0.00 0.00 0.01 0.00 0.00 0.01 0.01 0.02 0.02 1.57 1.75 1.48 0.43 0.17 0.70 1.26 1.01 0.60 0.12 0.05 0.03 0.03 0.01 0.09 0.11 0.04 0.02 0.04 0.01 0.09 0.01 0.01 0.01 0.00 0.00 0.00 0.00 0.00
0.00 0.00 0.00 0.02 0.03 0.01 0.00 0.06 0.04 0.03 0.05 0.04 0.03 0.02 0.02 0.08 0.07 0.10 0.13 0.10 0.09 0.27 0.16 0.29 0.23 0.07 0.12 0.06 0.14 0.17 0.12 0.06 0.10 0.17 0.06 0.04 0.01 0.01 0.01 0.01 0.01 0.01 0.01 0.01 0.01 0.01 0.01 0.01 0.01 0.01 0.01 0.02 0.07 0.05 0.04 0.01 0.01 0.55 0.82 0.78 0.66 1.48 1.59 0.93 0.68 0.37 0.18 0.05 0.04 0.02 0.15 0.15 0.09 0.04 0.12 0.11 0.10 0.04 0.17 0.02 0.03 0.01 0.01 0.05 0.00